User: anonymous   Login
Location: Newark
(52.3735°N, 16.9806°E)
Time: 08:07:20
(UTC+00:00)
Language:

TIGRISAT - Orbit

View from above orbital plane
View from above orbital plane
View from above satellite
View from above satellite

Ground track
Ground track

The orbit data is extracted from the following two-line orbital elements,

1 40043U 14033AK  24063.42704262  .00002894  00000-0  39778-3 0  9994
2 40043  97.6825 230.8602 0055135 288.2846  71.2371 14.78034162521834
Epoch (UTC): 03 March 2024 10:14:56
Eccentricity: 0.0055135
inclination: 97.6825°
perigee height: 597 km
apogee height: 674 km
right ascension of ascending node: 230.8602°
argument of perigee: 288.2846°
revolutions per day: 14.78034162
mean anomaly at epoch: 71.2371°
orbit number at epoch: 52183

The dashed part of the orbit path shows where the satellite is in the earth's shadow,  

DLR